Jacksonville, IL

8:13 AM CST on December 11, 2017 (GMT -0600)
Jacksonville Municipal

Weather History for KIJX - November, 2012

Change the Weather History Date:

Tuesday, November 6, 2012

  Actual Average (KSPI) Record (KSPI)
Temperature  
Mean Temperature 44 °F -  
Max Temperature 46 °F 53 °F 79 °F (1915)
Min Temperature 41 °F 34 °F 19 °F (1993)
Degree Days  
Heating Degree Days 22    
Moisture  
Dew Point 42 °F    
Average Humidity 91    
Maximum Humidity 96    
Minimum Humidity 87    
Precipitation  
Precipitation 0.01 in - - ()
Sea Level Pressure  
Sea Level Pressure 29.99 in    
Wind  
Wind Speed 4 mph (WSW)    
Max Wind Speed 12 mph    
Max Gust Speed -    
Visibility 5 miles    
Events Rain    
Averages and records for this station are not official NWS values.
T = Trace of Precipitation, MM = Missing Value Source: NWS Daily Summary

Daily Weather History Graph

Daily Weather History Graph

Search for Another Location

Airport or City:

Trip Planner

Search our weather history database for the weather conditions in past years. The results will help you decide how hot, cold, wet, or windy it might be!

Date:

Astronomy

Nov. 06, 2012 Rise Set
Actual Time 6:35 AM CST 4:52 PM CST
Civil Twilight 6:07 AM CST 5:21 PM CST
Nautical Twilight 5:35 AM CST 5:53 PM CST
Astronomical Twilight 5:03 AM CST 6:24 PM CST
Moon 11:31 PM CST (11/6) 12:28 PM CST (11/6)
Length of Visible Light 11h 13m
Length of Day
10h 16m
Waning Gibbous, 53% of the Moon is Illuminated
Nov 6
Waning Gibbous
Nov 6
Last Quarter
Nov 13
New
Nov 20
First Quarter
Nov 28
Full

Hourly Weather History & Observations

Time (CST) Temp. Windchill Dew Point Humidity Pressure Visibility Wind Dir Wind Speed Gust Speed Precip Events Conditions
12:15 AM 42.4 °F - 39.2 °F 88% 30.10 in 2.5 mi Calm Calm - N/A   Mist
12:35 AM 42.4 °F - 39.2 °F 88% 30.10 in 4.0 mi Calm Calm - N/A   Mist
12:55 AM 42.4 °F - 39.4 °F 89% 30.09 in 7.0 mi Calm Calm - N/A   Unknown
1:15 AM 42.3 °F - 39.6 °F 90% 30.09 in 5.0 mi Calm Calm - N/A   Mist
1:35 AM 42.1 °F - 39.7 °F 91% 30.10 in 5.0 mi Calm Calm - N/A   Mist
1:55 AM 42.6 °F - 40.1 °F 91% 30.09 in 5.0 mi Calm Calm - N/A   Mist
2:15 AM 42.1 °F - 40.1 °F 93% 30.08 in 4.0 mi Calm Calm - N/A   Mist
2:35 AM 42.3 °F - 40.3 °F 93% 30.07 in 3.0 mi Calm Calm - N/A   Mist
2:55 AM 41.9 °F - 39.9 °F 93% 30.07 in 3.0 mi Calm Calm - N/A   Mist
3:15 AM 42.1 °F - 40.1 °F 93% 30.07 in 4.0 mi Calm Calm - 0.01 in   Mist
3:35 AM 41.9 °F 40.0 °F 40.3 °F 94% 30.08 in 3.0 mi WNW 3.5 mph - 0.01 in   Mist
3:55 AM 41.9 °F - 40.3 °F 94% 30.08 in 4.0 mi Calm Calm - 0.01 in   Mist
4:15 AM 42.1 °F - 40.5 °F 94% 30.07 in 3.0 mi Calm Calm - N/A   Mist
4:35 AM 42.4 °F - 40.6 °F 93% 30.08 in 4.0 mi Calm Calm - N/A   Mist
4:55 AM 42.1 °F - 39.7 °F 91% 30.07 in 4.0 mi Calm Calm - N/A   Mist
5:15 AM 41.9 °F - 39.7 °F 92% 30.05 in 4.0 mi Calm Calm - N/A   Mist
5:35 AM 42.8 °F - 39.2 °F 87% 30.03 in 4.0 mi Calm Calm - N/A   Mist
5:55 AM 41.9 °F - 39.4 °F 91% 30.03 in 4.0 mi Calm Calm - N/A   Mist
6:15 AM 42.1 °F - 38.8 °F 88% 30.04 in 7.0 mi Calm Calm - N/A   Unknown
6:35 AM 42.1 °F - 38.7 °F 88% 30.03 in 7.0 mi Calm Calm - N/A   Unknown
6:55 AM 42.1 °F 40.2 °F 38.5 °F 87% 30.03 in 5.0 mi South 3.5 mph - N/A   Mist
7:15 AM 42.4 °F 40.7 °F 39.2 °F 88% 30.04 in 5.0 mi SSW 3.5 mph - N/A   Mist
7:35 AM 42.8 °F 40.1 °F 39.2 °F 87% 30.04 in 5.0 mi South 4.6 mph - N/A   Mist
7:55 AM 42.8 °F 40.1 °F 39.2 °F 87% 30.04 in 5.0 mi South 4.6 mph - N/A   Mist
8:15 AM 43.0 °F 38.8 °F 39.6 °F 88% 30.03 in 3.0 mi SSE 6.9 mph - N/A   Mist
8:55 AM 44.6 °F 41.4 °F 41.0 °F 87% 30.02 in 4.0 mi SSW 5.8 mph - N/A   Mist
9:15 AM 44.1 °F 39.5 °F 40.3 °F 87% 30.03 in 5.0 mi SW 8.1 mph - N/A   Mist
9:35 AM 44.2 °F 39.7 °F 40.8 °F 88% 30.03 in 4.0 mi SW 8.1 mph - N/A   Mist
9:55 AM 44.6 °F 39.2 °F 41.2 °F 88% 30.02 in 4.0 mi SW 10.4 mph - N/A   Mist
10:15 AM 44.6 °F 40.2 °F 41.0 °F 87% 30.02 in 4.0 mi SW 8.1 mph - N/A   Mist
10:35 AM 44.6 °F 39.2 °F 41.2 °F 88% 30.01 in 4.0 mi SW 10.4 mph - N/A Rain Light Rain
10:55 AM 44.8 °F 39.0 °F 41.9 °F 90% 29.99 in 4.0 mi SSW 11.5 mph - N/A Rain Light Rain
11:15 AM 44.6 °F 40.2 °F 42.1 °F 91% 29.97 in 3.0 mi SSW 8.1 mph - N/A Rain Light Rain
11:35 AM 45.0 °F 40.6 °F 42.4 °F 91% 29.97 in 3.0 mi SW 8.1 mph - N/A Rain Light Rain
11:55 AM 45.1 °F 40.3 °F 43.0 °F 92% 29.96 in 3.0 mi SSW 9.2 mph - N/A Rain Light Rain
12:15 PM 45.5 °F 41.3 °F 43.2 °F 92% 29.94 in 4.0 mi SSW 8.1 mph - N/A   Light Drizzle
12:35 PM 45.5 °F 39.9 °F 42.8 °F 90% 29.94 in 5.0 mi South 11.5 mph - N/A   Mist
12:55 PM 45.7 °F 40.6 °F 42.8 °F 90% 29.93 in 7.0 mi SSW 10.4 mph - N/A   Unknown
1:15 PM 45.9 °F 40.8 °F 43.0 °F 90% 29.93 in 5.0 mi SSW 10.4 mph - N/A   Mist
1:35 PM 45.9 °F 40.8 °F 43.0 °F 90% 29.92 in 5.0 mi SW 10.4 mph - N/A   Mist
1:55 PM 45.7 °F 40.6 °F 43.2 °F 91% 29.91 in 1.8 mi SW 10.4 mph - N/A   Light Drizzle
2:15 PM 45.5 °F 41.8 °F 43.7 °F 93% 29.91 in 1.8 mi SW 6.9 mph - N/A   Drizzle
2:35 PM 45.5 °F 41.3 °F 43.9 °F 94% 29.91 in 1.5 mi SW 8.1 mph - N/A   Light Drizzle
2:55 PM 45.7 °F 41.0 °F 44.2 °F 95% 29.91 in 1.5 mi SW 9.2 mph - N/A   Light Drizzle
3:15 PM 45.7 °F 42.0 °F 44.2 °F 95% 29.91 in 2.0 mi WSW 6.9 mph - N/A Rain Rain
3:35 PM 45.9 °F 42.9 °F 44.4 °F 95% 29.91 in 4.0 mi WSW 5.8 mph - N/A   Mist
3:55 PM 46.4 °F 42.4 °F 44.6 °F 93% 29.91 in 1.8 mi WSW 8.1 mph - N/A   Mist
4:15 PM 45.5 °F 40.8 °F 43.9 °F 94% 29.91 in 3.0 mi WSW 9.2 mph - N/A   Mist
4:35 PM 45.5 °F 41.8 °F 43.9 °F 94% 29.91 in 1.8 mi WSW 6.9 mph - N/A   Mist
4:55 PM 45.5 °F 41.3 °F 44.1 °F 95% 29.92 in 2.5 mi WSW 8.1 mph - N/A   Drizzle
5:15 PM 45.5 °F 41.8 °F 44.1 °F 95% 29.92 in 5.0 mi WSW 6.9 mph - N/A   Mist
5:35 PM 45.3 °F 41.1 °F 43.9 °F 95% 29.93 in 5.0 mi WSW 8.1 mph - N/A   Mist
5:55 PM 44.6 °F 40.2 °F 43.0 °F 94% 29.93 in 7.0 mi West 8.1 mph - N/A   Unknown
6:15 PM 44.1 °F 40.1 °F 42.3 °F 93% 29.93 in 5.0 mi WSW 6.9 mph - N/A   Mist
6:35 PM 43.5 °F 40.1 °F 41.7 °F 93% 29.93 in 5.0 mi WSW 5.8 mph - N/A   Mist
6:55 PM 42.4 °F 38.8 °F 40.8 °F 94% 29.94 in 4.0 mi WSW 5.8 mph - N/A   Mist
7:15 PM 41.9 °F 38.2 °F 40.5 °F 95% 29.93 in 3.0 mi WSW 5.8 mph - N/A   Mist
7:35 PM 42.3 °F 40.5 °F 41.0 °F 95% 29.93 in 3.0 mi WSW 3.5 mph - N/A   Mist
7:55 PM 43.9 °F 40.5 °F 42.8 °F 96% 29.93 in 5.0 mi West 5.8 mph - N/A   Mist
8:15 PM 44.8 °F 39.9 °F 43.2 °F 94% 29.94 in 7.0 mi West 9.2 mph - N/A   Unknown
8:35 PM 44.8 °F 41.0 °F 42.8 °F 93% 29.94 in 7.0 mi West 6.9 mph - N/A   Unknown
8:55 PM 45.3 °F 42.3 °F 42.8 °F 91% 29.93 in 7.0 mi West 5.8 mph - N/A   Unknown
9:15 PM 45.5 °F 42.5 °F 42.8 °F 90% 29.93 in 10.0 mi West 5.8 mph - N/A   Unknown
9:35 PM 45.5 °F 41.8 °F 42.8 °F 90% 29.93 in 7.0 mi West 6.9 mph - N/A   Unknown
9:55 PM 45.5 °F 39.9 °F 43.2 °F 92% 29.94 in 4.0 mi WNW 11.5 mph - N/A Rain Rain
10:15 PM 45.5 °F 41.8 °F 43.0 °F 91% 29.93 in 10.0 mi WNW 6.9 mph - N/A   Unknown
10:35 PM 45.5 °F 41.8 °F 42.8 °F 90% 29.93 in 10.0 mi WNW 6.9 mph - N/A   Unknown
10:55 PM 45.0 °F 42.6 °F 42.8 °F 92% 29.93 in 10.0 mi West 4.6 mph - N/A   Unknown
11:15 PM 44.6 °F 42.2 °F 42.4 °F 92% 29.93 in 7.0 mi West 4.6 mph - N/A   Unknown
11:35 PM 44.6 °F 43.1 °F 42.8 °F 93% 29.93 in 10.0 mi West 3.5 mph - N/A   Unknown
11:55 PM 45.1 °F 40.8 °F 42.4 °F 90% 29.93 in 10.0 mi WNW 8.1 mph - N/A   Unknown